Location: Franzen
(48.6167°N, 15.3833°E)
Time: 06:04:15
(UTC+00:00)

Altair - Pass Details

Date: 13 August 2021
Orbit: 1501 x 1682 km, 47.2° (Epoch: 21 September)

Event Time Altitude Azimuth Distance (km) Brightness Sun altitude
Rises 20:30:13 0° 214° (SW) 4,857 10.0 -18.4°
Reaches altitude 10° 20:33:37 10° 207° (SSW) 3,849 9.4 -18.8°
Maximum altitude 20:42:28 41° 142° (SE) 2,174 7.8 -19.7°
Drops below altitude 10° 20:51:01 10° 77° (ENE) 3,730 9.3 -20.5°
Sets 20:54:15 0° 71° (ENE) 4,693 9.9 -20.8°
